Weather History for Santiago de Compostela, Spain

Change the Weather History Date:

Sunday, November 11, 2012

  Actual Average Record
Temperature  
Mean Temperature 45 °F -  
Max Temperature 51 °F 53 °F 66 °F (2006)
Min Temperature 39 °F 41 °F 33 °F (2007)
Degree Days  
Heating Degree Days 20    
Moisture  
Dew Point 42 °F    
Average Humidity 93    
Maximum Humidity 100    
Minimum Humidity 76    
Precipitation  
Precipitation 0.00 in - - ()
Sea Level Pressure  
Sea Level Pressure 30.08 in    
Wind  
Wind Speed 4 mph ()    
Max Wind Speed 14 mph    
Max Gust Speed 26 mph    
Visibility 5.9 miles    
Events Fog , Rain    
Averages and records for this station are not official NWS values.
T = Trace of Precipitation, MM = Missing Value Source: Averaged Metar Reports

Daily Weather History Graph

Daily Weather History Graph

Search for Another Location

Airport:

Trip Planner

Search our weather history database for the weather conditions in past years. The results will help you decide how hot, cold, wet, or windy it might be!

Date:

Astronomy

Nov. 11, 2012 Rise Set
Actual Time 8:21 AM CET 6:13 PM CET
Civil Twilight 7:50 AM CET 6:44 PM CET
Nautical Twilight 7:16 AM CET 7:18 PM CET
Astronomical Twilight 6:43 AM CET 7:51 PM CET
Moon 5:15 AM CET (11/11) 4:31 PM CET (11/11)
Length of Visible Light 10h 53m
Length of Day
9h 52m
Waning Crescent, 9% of the Moon is Illuminated
Nov 11
Waning Crescent
Nov 13
New
Nov 20
First Quarter
Nov 28
Full
Dec 6
Last Quarter

Hourly Weather History & Observations

Time (CET) Temp. Windchill Dew Point Humidity Pressure Visibility Wind Dir Wind Speed Gust Speed Precip Events Conditions
12:00 AM 42.8 °F - 42.8 °F 100% 29.92 in 6.2 mi Calm Calm - N/A   Scattered Clouds
12:30 AM 42.8 °F - 42.8 °F 100% 29.92 in 6.2 mi Variable 1.2 mph - N/A Rain Light Rain Showers
1:00 AM 42.8 °F - 42.8 °F 100% 29.92 in 6.2 mi Variable 2.3 mph - N/A   Partly Cloudy
1:30 AM 42.8 °F - 42.8 °F 100% 29.95 in 6.2 mi Variable 2.3 mph - N/A   Partly Cloudy
2:00 AM 41.0 °F - 41.0 °F 100% 29.95 in 6.2 mi Variable 1.2 mph - N/A   Partly Cloudy
2:30 AM 41.0 °F - 41.0 °F 100% 29.95 in 6.2 mi Variable 1.2 mph - N/A   Partly Cloudy
3:00 AM 41.0 °F - 41.0 °F 100% 29.95 in 6.2 mi Variable 2.3 mph - N/A   Partly Cloudy
3:30 AM 41.0 °F - 41.0 °F 100% 29.95 in 6.2 mi Variable 1.2 mph - N/A   Partly Cloudy
4:00 AM 41.0 °F 35.2 °F 41.0 °F 100% 29.95 in 2.5 mi NNW 9.2 mph - N/A Rain Rain Showers
4:30 AM 41.0 °F - 39.2 °F 93% 29.95 in 6.2 mi Variable 2.3 mph - N/A   Partly Cloudy
5:00 AM 39.2 °F - 39.2 °F 100% 29.95 in 6.2 mi Variable 2.3 mph - N/A Rain Light Rain Showers
5:30 AM 41.0 °F - 41.0 °F 100% 29.95 in 6.2 mi Variable 1.2 mph - N/A   Partly Cloudy
6:00 AM 41.0 °F - 41.0 °F 100% 29.98 in 6.2 mi Variable 2.3 mph - N/A   Partly Cloudy
6:20 AM 41.0 °F 38.0 °F 41.0 °F 100% 29.98 in 3.7 mi North 4.6 mph - N/A Rain Rain Showers
6:30 AM 41.0 °F 37.1 °F 41.0 °F 100% 29.98 in 3.7 mi North 5.8 mph - N/A Rain Rain Showers
7:00 AM 41.0 °F - 41.0 °F 100% 29.98 in 6.2 mi Variable 2.3 mph - N/A Rain Light Rain Showers
7:46 AM 41.0 °F 38.0 °F 41.0 °F 100% 30.01 in 5.0 mi East 4.6 mph - N/A Rain Rain Showers
8:00 AM 41.0 °F 36.4 °F 41.0 °F 100% 30.01 in 5.0 mi NNE 6.9 mph - N/A Rain Rain Showers
8:30 AM 41.0 °F - 39.2 °F 93% 30.04 in 6.2 mi Variable 2.3 mph - N/A   Partly Cloudy
9:00 AM 42.8 °F - 42.8 °F 100% 30.04 in 6.2 mi Variable 1.2 mph - N/A Rain Light Rain Showers
9:30 AM 42.8 °F 40.1 °F 41.0 °F 93% 30.06 in 6.2 mi NNE 4.6 mph - N/A   Partly Cloudy
10:00 AM 44.6 °F 42.2 °F 42.8 °F 93% 30.06 in 6.2 mi NNE 4.6 mph - N/A Fog Partly Cloudy
10:30 AM 46.4 °F 45.2 °F 42.8 °F 87% 30.09 in 6.2 mi North 3.5 mph - N/A Fog Partly Cloudy
11:00 AM 46.4 °F - 44.6 °F 93% 30.09 in 6.2 mi Variable 1.2 mph - N/A Fog Partly Cloudy
11:30 AM 46.4 °F 45.2 °F 42.8 °F 87% 30.12 in 6.2 mi North 3.5 mph - N/A   Scattered Clouds
12:00 PM 48.2 °F - 44.6 °F 87% 30.12 in 6.2 mi North 5.8 mph - N/A   Scattered Clouds
12:30 PM 50.0 °F - 44.6 °F 82% 30.12 in 6.2 mi NNE 5.8 mph - N/A   Scattered Clouds
1:00 PM 50.0 °F - 44.6 °F 82% 30.12 in 6.2 mi NNE 9.2 mph - N/A   Scattered Clouds
1:30 PM 48.2 °F - 42.8 °F 82% 30.12 in 6.2 mi North 13.8 mph 26.5 mph N/A Rain Light Rain Showers
2:00 PM 46.4 °F 42.4 °F 44.6 °F 93% 30.12 in 6.2 mi North 8.1 mph - N/A   Scattered Clouds
2:30 PM 51.8 °F - 46.4 °F 82% 30.12 in 6.2 mi North 6.9 mph - N/A   Scattered Clouds
3:00 PM 50.0 °F - 42.8 °F 76% 30.12 in 6.2 mi North 11.5 mph - N/A   Scattered Clouds
3:30 PM 50.0 °F - 44.6 °F 82% 30.12 in 5.0 mi NE 13.8 mph - N/A Rain Light Rain Showers
4:00 PM 46.4 °F 42.9 °F 42.8 °F 87% 30.15 in 6.2 mi North 6.9 mph - N/A   Scattered Clouds
4:30 PM 50.0 °F - 44.6 °F 82% 30.15 in 6.2 mi North 8.1 mph - N/A   Scattered Clouds
5:00 PM 50.0 °F - 44.6 °F 82% 30.15 in 6.2 mi North 10.4 mph - N/A   Scattered Clouds
5:30 PM 48.2 °F - 42.8 °F 82% 30.18 in 6.2 mi North 11.5 mph - N/A   Scattered Clouds
6:00 PM 48.2 °F - 41.0 °F 76% 30.18 in 6.2 mi NNE 10.4 mph - N/A   Scattered Clouds
6:30 PM 46.4 °F 43.5 °F 41.0 °F 81% 30.18 in 6.2 mi North 5.8 mph - N/A   Scattered Clouds
7:00 PM 42.8 °F 39.3 °F 41.0 °F 93% 30.21 in 6.2 mi North 5.8 mph - N/A   Partly Cloudy
7:30 PM 44.6 °F 41.4 °F 42.8 °F 93% 30.21 in 6.2 mi North 5.8 mph - N/A   Partly Cloudy
8:30 PM 42.8 °F 39.3 °F 41.0 °F 93% 30.24 in 6.2 mi North 5.8 mph - N/A   Partly Cloudy
9:00 PM 42.8 °F 39.3 °F 42.8 °F 100% 30.27 in 6.2 mi North 5.8 mph - N/A   Partly Cloudy
9:30 PM 42.8 °F 41.1 °F 41.0 °F 93% 30.27 in 6.2 mi North 3.5 mph - N/A   Scattered Clouds
10:00 PM 44.6 °F 43.1 °F 42.8 °F 93% 30.27 in 6.2 mi NNE 3.5 mph - N/A   Scattered Clouds
10:30 PM 41.0 °F 39.0 °F 41.0 °F 100% 30.27 in 6.2 mi NW 3.5 mph - N/A   Scattered Clouds
11:00 PM 41.0 °F - 41.0 °F 100% 30.30 in 3.7 mi Variable 1.2 mph - N/A   Scattered Clouds
11:30 PM 41.0 °F - 41.0 °F 100% 30.30 in 4.3 mi Calm Calm - N/A   Scattered Clouds